Torna al catalogo

FREGAT DEB

LostUNKNOWN
NORAD 45954·DEBRIS·🇷🇺 Russia

Lanciato Jul 18, 2011 da Baikonur Cosmodrome

Loading…

Prossimi Passaggi (prossime 24 ore)

TLE

ObsoletoSource: Space-Track

Epoca: Sep 22, 2023, 03:15 UTC

1 45954U 11037FK  23265.13568837  .00416870  00000-0  91866+0 0  9993
2 45954  51.5588  61.5860 1884875 163.7557 203.3253 10.55952450119175

Traccia FREGAT DEB in tempo reale con AllMySat

Download on the App Store